Location: Bellflower
(33.8817°N, 118.1170°W)
Time: 13:25:13
(UTC+00:00)

GPS 2-04 Rocket1 - Pass Details

Date: 23 November 2020
Orbit: 417 x 544 km, 35.6° (Epoch: 22 January)

Event Time Altitude Azimuth Distance (km) Brightness Sun altitude
Exits shadow 13:18:42 16° 232° (SW) 1,361 4.5 -15.3°
Maximum altitude 13:21:35 51° 160° (SSE) 606 3.2 -14.7°
Drops below altitude 10° 13:25:10 10° 83° (E) 1,607 6.3 -14.0°
Sets 13:27:19 0° 78° (ENE) 2,459 7.3 -13.6°
